Columbus, OH

7:01 AM EST on February 09, 2016 (GMT -0500)
Port Columbus International

Weather History for KCMH - January, 2014

Change the Weather History Date:

Saturday, January 11, 2014

  Actual Average Record
Temperature  
Mean Temperature 45 °F 29 °F  
Max Temperature 53 °F 36 °F 66 °F (1890)
Min Temperature 36 °F 23 °F -11 °F (1886)
Degree Days  
Heating Degree Days 20 36  
Month to date heating degree days 448 389  
Since 1 July heating degree days 2441 2380  
Cooling Degree Days 0 0  
Month to date cooling degree days 0 0  
Year to date cooling degree days 0 0  
Moisture  
Dew Point 41 °F    
Average Humidity 82    
Maximum Humidity 96    
Minimum Humidity 67    
Precipitation  
Precipitation 0.69 in 0.10 in 2.10 in (2005)
Month to date precipitation 1.43 1.02  
Year to date precipitation 1.43 1.02  
Snow  
Snow 0.00 in 0.30 in 6.30 in (1893)
Month to date snowfall 4.9 3.1  
Since 1 July snowfall 22.3 9.2  
Snow Depth 0.00 in    
Sea Level Pressure  
Sea Level Pressure 29.59 in    
Wind  
Wind Speed 14 mph (SW)    
Max Wind Speed 33 mph    
Max Gust Speed 40 mph    
Visibility 9 miles    
Events Rain    
T = Trace of Precipitation, MM = Missing Value Source: NWS Daily Summary

Daily Weather History Graph

Daily Weather History Graph

Search for Another Location

Airport or City:

Trip Planner

Search our weather history database for the weather conditions in past years. The results will help you decide how hot, cold, wet, or windy it might be!

Date:

Astronomy

Jan. 11, 2014 Rise Set
Actual Time 7:52 AM EST 5:26 PM EST
Civil Twilight 7:22 AM EST 5:56 PM EST
Nautical Twilight 6:49 AM EST 6:30 PM EST
Astronomical Twilight 6:16 AM EST 7:02 PM EST
Moon 2:09 PM EST (1/11) 3:56 AM EST (1/11)
Length of Visible Light 10h 33m
Length of Day
9h 33m
Waxing Gibbous, 83% of the Moon is Illuminated
Jan 11
Waxing Gibbous
Jan 15
Full
Jan 24
Last Quarter
Jan 30
New
Feb 6
First Quarter

Hourly Weather History & Observations

Time (EST) Temp. Windchill Dew Point Humidity Pressure Visibility Wind Dir Wind Speed Gust Speed Precip Events Conditions
12:51 AM 51.1 °F - 45.0 °F 80% 29.74 in 10.0 mi SSE 9.2 mph - N/A   Overcast
1:51 AM 52.0 °F - 46.0 °F 80% 29.72 in 10.0 mi South 10.4 mph - N/A   Overcast
2:10 AM 51.8 °F - 46.4 °F 82% 29.70 in 10.0 mi South 10.4 mph - N/A   Overcast
2:51 AM 51.1 °F - 46.9 °F 86% 29.70 in 4.0 mi South 9.2 mph - 0.05 in Rain Rain
3:51 AM 50.0 °F - 46.9 °F 89% 29.67 in 10.0 mi SSE 8.1 mph - 0.10 in   Overcast
4:51 AM 50.0 °F - 48.0 °F 93% 29.62 in 5.0 mi SSE 9.2 mph - 0.17 in Rain Rain
5:51 AM 51.1 °F - 50.0 °F 96% 29.59 in 4.0 mi South 6.9 mph - 0.17 in Rain Heavy Rain
6:11 AM 51.8 °F - 50.0 °F 94% 29.59 in 5.0 mi South 6.9 mph - 0.06 in Rain Rain
6:51 AM 51.1 °F - 50.0 °F 96% 29.57 in 8.0 mi South 6.9 mph - 0.15 in Rain Light Rain
7:25 AM 50.0 °F - 50.0 °F 100% 29.53 in 10.0 mi SSE 8.1 mph - 0.02 in Rain Light Rain
7:51 AM 50.0 °F - 50.0 °F 100% 29.52 in 10.0 mi South 8.1 mph - 0.02 in   Overcast
8:51 AM 51.1 °F - 50.0 °F 96% 29.51 in 10.0 mi South 9.2 mph - N/A   Overcast
9:51 AM 51.1 °F - 48.9 °F 92% 29.48 in 10.0 mi South 9.2 mph - N/A   Overcast
10:51 AM 51.1 °F - 48.9 °F 92% 29.49 in 1.5 mi South 12.7 mph 20.7 mph 0.02 in Rain Light Rain
11:18 AM 51.8 °F - 48.2 °F 88% 29.48 in 10.0 mi SSW 17.3 mph 26.5 mph 0.01 in   Overcast
11:51 AM 52.0 °F - 48.9 °F 89% 29.46 in 10.0 mi SSW 17.3 mph - 0.01 in   Overcast
12:05 PM 51.8 °F - 48.2 °F 88% 29.46 in 10.0 mi SW 18.4 mph 25.3 mph N/A   Overcast
12:25 PM 53.6 °F - 48.2 °F 82% 29.45 in 10.0 mi SW 16.1 mph 21.9 mph N/A   Overcast
12:51 PM 53.1 °F - 46.9 °F 80% 29.43 in 10.0 mi SW 12.7 mph - N/A   Overcast
1:05 PM 51.8 °F - 46.4 °F 82% 29.44 in 10.0 mi West 23.0 mph 34.5 mph N/A   Overcast
1:32 PM 51.8 °F - 42.8 °F 71% 29.44 in 10.0 mi West 13.8 mph 23.0 mph N/A   Overcast
1:51 PM 48.9 °F - 41.0 °F 74% 29.45 in 10.0 mi West 26.5 mph 34.5 mph N/A   Overcast
2:51 PM 46.9 °F - 37.0 °F 68% 29.48 in 10.0 mi West 18.4 mph 27.6 mph N/A   Overcast
3:29 PM 44.6 °F 35.5 °F 33.8 °F 66% 29.51 in 10.0 mi West 25.3 mph 38.0 mph N/A   Overcast
3:51 PM 44.1 °F 35.4 °F 35.1 °F 71% 29.53 in 10.0 mi West 21.9 mph 31.1 mph N/A   Overcast
4:26 PM 42.8 °F 34.0 °F 33.8 °F 70% 29.55 in 10.0 mi West 20.7 mph 26.5 mph N/A   Mostly Cloudy
4:51 PM 42.1 °F 34.2 °F 32.0 °F 67% 29.57 in 10.0 mi WSW 16.1 mph 25.3 mph N/A   Overcast
5:51 PM 39.9 °F 32.5 °F 32.0 °F 73% 29.60 in 10.0 mi West 12.7 mph - N/A   Overcast
6:51 PM 39.0 °F 28.3 °F 32.0 °F 76% 29.64 in 10.0 mi West 24.2 mph 31.1 mph N/A   Overcast
7:51 PM 37.9 °F 27.9 °F 30.0 °F 73% 29.67 in 10.0 mi West 19.6 mph 29.9 mph N/A   Overcast
8:44 PM 37.4 °F 28.5 °F 30.2 °F 75% 29.69 in 10.0 mi West 15.0 mph 26.5 mph N/A   Overcast
8:51 PM 37.0 °F 27.0 °F 30.0 °F 76% 29.70 in 10.0 mi West 18.4 mph 25.3 mph N/A   Overcast
9:51 PM 37.0 °F 28.9 °F 28.0 °F 70% 29.74 in 10.0 mi West 12.7 mph 21.9 mph N/A   Overcast
10:51 PM 37.0 °F 28.5 °F 28.0 °F 70% 29.77 in 10.0 mi West 13.8 mph - N/A   Overcast
11:13 PM 37.4 °F 29.3 °F 28.4 °F 70% 29.76 in 10.0 mi West 12.7 mph - N/A   Overcast
11:51 PM 37.0 °F 28.9 °F 28.0 °F 70% 29.78 in 10.0 mi WSW 12.7 mph - N/A   Overcast